DAL2207 KLAS-KMSP

Flight info

Callsign DAL2207
Flight time N/A
Altitude 33000
Route GIDGT3 TUKRR DCT HBU DCT SNY DCT SSWAN TORGY4
Aircraft A321/M-SDE3FGHIRWY/LB1

Departure

Time N/A
Airport Harry Reid International Airport (KLAS)

Arrival

Time 2026-05-04 03:26
Airport Minneapolis–Saint Paul International Airport / Wold–Chamberlain Field (KMSP)
Time Latitude Longitude Altitude Speed Heading
2026-05-04 03:11 44.83450 -93.51985 14620 ft 336 kts 69°
2026-05-04 03:11 44.84137 -93.48844 14266 ft 334 kts 69°
2026-05-04 03:11 44.84822 -93.45721 13917 ft 332 kts 69°
2026-05-04 03:12 44.85618 -93.42687 13573 ft 327 kts 59°
2026-05-04 03:12 44.86743 -93.39972 13182 ft 323 kts 54°
2026-05-04 03:12 44.87911 -93.37275 12798 ft 322 kts 54°
2026-05-04 03:12 44.89068 -93.34584 12435 ft 320 kts 54°
2026-05-04 03:13 44.90217 -93.31898 12065 ft 318 kts 54°
2026-05-04 03:13 44.91358 -93.29230 11601 ft 319 kts 55°
2026-05-04 03:13 44.92540 -93.26486 10694 ft 335 kts 55°
2026-05-04 03:13 44.93766 -93.23675 10177 ft 330 kts 54°
2026-05-04 03:14 44.94898 -93.20966 10025 ft 315 kts 62°
2026-05-04 03:14 44.95483 -93.18007 9984 ft 316 kts 84°
2026-05-04 03:14 44.95306 -93.14915 9993 ft 318 kts 107°
2026-05-04 03:14 44.94376 -93.12114 9741 ft 311 kts 130°
2026-05-04 03:15 44.92889 -93.10089 9425 ft 287 kts 151°
2026-05-04 03:15 44.92344 -93.09619 9295 ft 279 kts 158°
2026-05-04 03:15 44.87570 -93.09018 8725 ft 259 kts 205°
2026-05-04 03:16 44.85979 -93.10123 8502 ft 252 kts 220°
2026-05-04 03:16 44.84565 -93.11531 8390 ft 247 kts 220°
2026-05-04 03:16 44.83172 -93.12905 8389 ft 241 kts 214°
2026-05-04 03:16 44.81765 -93.14195 8466 ft 241 kts 212°
2026-05-04 03:17 44.80314 -93.15398 8430 ft 243 kts 210°
2026-05-04 03:17 44.78870 -93.16662 7906 ft 245 kts 213°
2026-05-04 03:17 44.77444 -93.17956 7294 ft 243 kts 207°
2026-05-04 03:17 44.75825 -93.18610 6682 ft 245 kts 183°
2026-05-04 03:18 44.74154 -93.18154 6074 ft 252 kts 150°
2026-05-04 03:18 44.72902 -93.16475 5669 ft 244 kts 119°
2026-05-04 03:18 44.72064 -93.14450 5605 ft 238 kts 114°
2026-05-04 03:18 44.71333 -93.12350 5538 ft 239 kts 109°
2026-05-04 03:19 44.70716 -93.10175 5416 ft 240 kts 105°
2026-05-04 03:19 44.70185 -93.07977 5244 ft 239 kts 103°
2026-05-04 03:19 44.69749 -93.05710 5162 ft 239 kts 95°
2026-05-04 03:19 44.69665 -93.03399 5152 ft 237 kts 78°
2026-05-04 03:20 44.69952 -93.01124 5124 ft 237 kts 66°
2026-05-04 03:20 44.70568 -92.98979 5080 ft 237 kts 52°
2026-05-04 03:20 44.71499 -92.97090 4845 ft 234 kts 38°
2026-05-04 03:20 44.72708 -92.95628 4542 ft 227 kts 30°
2026-05-04 03:21 44.74150 -92.94851 4338 ft 218 kts 355°
2026-05-04 03:21 44.75483 -92.95514 4402 ft 203 kts 314°
2026-05-04 03:21 44.76474 -92.96824 4377 ft 187 kts 311°
2026-05-04 03:21 44.77413 -92.98052 4383 ft 183 kts 311°
2026-05-04 03:22 44.78282 -92.99351 4193 ft 182 kts 304°
2026-05-04 03:22 44.78970 -93.00805 3932 ft 176 kts 296°
2026-05-04 03:22 44.79582 -93.02235 3716 ft 164 kts 297°
2026-05-04 03:22 44.80162 -93.03565 3488 ft 157 kts 297°
2026-05-04 03:23 44.80728 -93.04866 3277 ft 155 kts 297°
2026-05-04 03:23 44.81287 -93.06154 3076 ft 154 kts 296°
2026-05-04 03:23 44.81844 -93.07440 2868 ft 154 kts 296°
2026-05-04 03:23 44.82402 -93.08726 2671 ft 154 kts 297°
2026-05-04 03:24 44.82959 -93.10007 2468 ft 149 kts 296°
2026-05-04 03:24 44.83496 -93.11235 2260 ft 145 kts 296°
2026-05-04 03:24 44.84021 -93.12438 2067 ft 143 kts 296°
2026-05-04 03:24 44.84539 -93.13630 1877 ft 142 kts 296°
2026-05-04 03:25 44.85061 -93.14833 1682 ft 145 kts 297°
2026-05-04 03:25 44.85590 -93.16055 1482 ft 147 kts 300°
2026-05-04 03:25 44.86128 -93.17286 1296 ft 148 kts 299°
2026-05-04 03:25 44.86649 -93.18515 1117 ft 149 kts 299°
2026-05-04 03:26 44.87197 -93.19766 937 ft 149 kts 300°
2026-05-04 03:26 44.87729 -93.20991 833 ft 131 kts 301°
2026-05-04 03:26 44.88098 -93.21839 833 ft 75 kts 301°
2026-05-04 03:26 44.88292 -93.22271 836 ft 38 kts 303°
2026-05-04 03:27 44.88378 -93.22434 828 ft 9 kts 323°
2026-05-04 03:27 44.88421 -93.22425 833 ft 1 kts 30°
2026-05-04 03:27 44.88422 -93.22424 835 ft 0 kts 30°
2026-05-04 03:30 44.88423 -93.22424 835 ft 0 kts 30°
2026-05-04 03:30 44.88443 -93.22371 834 ft 14 kts 86°
2026-05-04 03:31 44.88399 -93.22239 831 ft 14 kts 122°
2026-05-04 03:31 44.88351 -93.22132 832 ft 12 kts 122°
2026-05-04 03:31 44.88305 -93.22027 828 ft 12 kts 122°
2026-05-04 03:31 44.88262 -93.21930 829 ft 11 kts 121°
2026-05-04 03:32 44.88224 -93.21839 833 ft 12 kts 120°
2026-05-04 03:32 44.88172 -93.21716 835 ft 17 kts 121°
2026-05-04 03:32 44.88112 -93.21575 835 ft 16 kts 121°
2026-05-04 03:32 44.88050 -93.21435 832 ft 17 kts 122°
2026-05-04 03:33 44.87991 -93.21297 834 ft 15 kts 121°
2026-05-04 03:33 44.87939 -93.21174 834 ft 14 kts 121°
2026-05-04 03:33 44.87897 -93.21075 832 ft 8 kts 120°
2026-05-04 03:33 44.87898 -93.21012 835 ft 6 kts 61°
2026-05-04 03:34 44.87916 -93.20977 835 ft 3 kts 50°
2026-05-04 03:34 44.87924 -93.20952 834 ft 4 kts 83°
2026-05-04 03:34 44.87925 -93.20924 836 ft 4 kts 82°
2026-05-04 03:34 44.87955 -93.20871 830 ft 6 kts 28°
2026-05-04 03:35 44.87988 -93.20844 834 ft 3 kts 31°
2026-05-04 03:35 44.87989 -93.20843 834 ft 0 kts 31°